Вернуться в каталог

OPS 4682 DEB

АктивенPO
NORAD 38415·DEBRIS·🇺🇸 United States

Запущен Apr 3, 1965 с Vandenberg Space Force Base

Loading…

Ближайшие Пролёты (ближайшие 24 часа)

TLE

СвежийSource: Space-Track

Эпоха: Sep 13, 2026, 14:32 UTC

1 38415U 65027DU  26256.60595940 -.00000116  00000-0 -39452-3 0  9996
2 38415  90.2529  16.5644 0029360 233.3262 126.5163 13.02440740626448

Отслеживайте OPS 4682 DEB в реальном времени с AllMySat

Download on the App Store